This is the latest recevied weather packets stored in our database for station/object KC0OOO-WX. If no packets are shown the sender has not sent any weather packets the latest 10 day(s).
| Time | Temp. | Humidity | Pressure | Rain* | Wind** | Luminosity | Snow |
|---|---|---|---|---|---|---|---|
| 1777930831 | 18.89° C | 27% | 1015.9 hPa | 0 mm | - | - | - |
| 1777930231 | 17.78° C | 30% | 1016.3 hPa | 0 mm | - | - | - |
| 1777929631 | 17.22° C | 28% | 1016.3 hPa | 0 mm | - | - | - |
| 1777929031 | 17.22° C | 29% | 1016.6 hPa | 0 mm | - | - | - |
| 1777928431 | 17.22° C | 33% | 1016.6 hPa | 0 mm | - | - | - |
| 1777927831 | 16.67° C | 32% | 1016.9 hPa | 0 mm | - | - | - |
| 1777927231 | 16.67° C | 32% | 1016.9 hPa | 0 mm | - | - | - |
| 1777926631 | 17.22° C | 34% | 1016.6 hPa | 0 mm | - | - | - |
| 1777926031 | 17.78° C | 34% | 1016.6 hPa | 0 mm | - | - | - |
| 1777925431 | 17.22° C | 34% | 1016.6 hPa | 0 mm | - | - | - |
| 1777924830 | 16.67° C | 35% | 1016.6 hPa | 0 mm | - | - | - |
| 1777924230 | 16.11° C | 36% | 1016.9 hPa | 0 mm | - | - | - |
| 1777923630 | 16.67° C | 36% | 1016.9 hPa | 0 mm | - | - | - |
| 1777923030 | 16.11° C | 40% | 1017.3 hPa | 0 mm | - | - | - |
| 1777922430 | 16.11° C | 39% | 1017.3 hPa | 0 mm | - | - | - |
| 1777921830 | 15.56° C | 39% | 1017.6 hPa | 0 mm | - | - | - |
| 1777921230 | 16.11° C | 39% | 1017.6 hPa | 0 mm | - | - | - |
| 1777920630 | 15.56° C | 42% | 1017.6 hPa | 0 mm | - | - | - |
| 1777920030 | 15.56° C | 40% | 1017.6 hPa | 0 mm | - | - | - |
| 1777919430 | 15.56° C | 42% | 1017.6 hPa | 0 mm | - | - | - |
| 1777918830 | 15.56° C | 42% | 1017.6 hPa | 0 mm | - | - | - |
| 1777918230 | 15.56° C | 40% | 1017.9 hPa | 0 mm | - | - | - |
| 1777917630 | 15.56° C | 42% | 1017.9 hPa | 0 mm | - | - | - |
| 1777917030 | 15.56° C | 47% | 1018.3 hPa | 0 mm | - | - | - |
| 1777916430 | 15.56° C | 43% | 1018.3 hPa | 0 mm | - | - | - |
* Rain latest hour (hover to see other rain measurements)
** Current wind speed in m/s (hover to see current wind gust speed)